Weather History for Reading, PA

Change the Weather History Date:

Sunday, September 29, 2013

  Actual Average Record
Temperature  
Mean Temperature 61 °F 60 °F  
Max Temperature 74 °F 70 °F 88 °F (1921)
Min Temperature 47 °F 49 °F 34 °F (2000)
Degree Days  
Heating Degree Days 4 6  
Month to date heating degree days 87 66  
Since 1 July heating degree days 87 71  
Cooling Degree Days 0 1  
Month to date cooling degree days 98 84  
Year to date cooling degree days 1082 887  
Growing Degree Days 9 (Base 50)    
Moisture  
Dew Point 50 °F    
Average Humidity 69    
Maximum Humidity 93    
Minimum Humidity 44    
Precipitation  
Precipitation 0.00 in 0.17 in 3.55 in (1934)
Month to date precipitation 1.31 4.17  
Year to date precipitation 30.45 33.13  
Sea Level Pressure  
Sea Level Pressure 30.16 in    
Wind  
Wind Speed 1 mph (SSE)    
Max Wind Speed 12 mph    
Max Gust Speed 15 mph    
Visibility 10 miles    
Events      
T = Trace of Precipitation, MM = Missing Value Source: NWS Daily Summary

Daily Weather History Graph

Daily Weather History Graph

Search for Another Location

Airport:

Trip Planner

Search our weather history database for the weather conditions in past years. The results will help you decide how hot, cold, wet, or windy it might be!

Date:

Astronomy

Sep. 29, 2013 Rise Set
Actual Time 6:58 AM EDT 6:48 PM EDT
Civil Twilight 6:31 AM EDT 7:16 PM EDT
Nautical Twilight 5:59 AM EDT 7:47 PM EDT
Astronomical Twilight 5:27 AM EDT 8:19 PM EDT
Moon 1:37 AM EDT (9/29) 3:44 PM EDT (9/29)
Length of Visible Light 12h 44m
Length of Day
11h 50m
Waning Crescent, 27% of the Moon is Illuminated
Sep 29
Waning Crescent
Oct 4
New
Oct 11
First Quarter
Oct 18
Full
Oct 26
Last Quarter

Hourly Weather History & Observations

Time (EDT) Temp. Dew Point Humidity Pressure Visibility Wind Dir Wind Speed Gust Speed Precip Events Conditions
12:54 AM 53.1 °F 48.9 °F 86% 30.24 in 10.0 mi Calm Calm - N/A   Clear
1:54 AM 52.0 °F 48.9 °F 89% 30.24 in 10.0 mi Calm Calm - N/A   Clear
2:54 AM 51.1 °F 48.0 °F 89% 30.22 in 10.0 mi Calm Calm - N/A   Clear
3:54 AM 51.1 °F 48.0 °F 89% 30.21 in 10.0 mi Calm Calm - N/A   Clear
4:54 AM 48.0 °F 46.0 °F 93% 30.20 in 10.0 mi Calm Calm - N/A   Clear
5:54 AM 48.9 °F 46.0 °F 90% 30.21 in 10.0 mi Calm Calm - N/A   Clear
6:54 AM 46.9 °F 45.0 °F 93% 30.22 in 10.0 mi Calm Calm - N/A   Clear
7:54 AM 51.1 °F 48.0 °F 89% 30.22 in 10.0 mi Calm Calm - N/A   Overcast
8:54 AM 55.0 °F 51.1 °F 86% 30.21 in 10.0 mi Calm Calm - N/A   Mostly Cloudy
9:54 AM 61.0 °F 52.0 °F 72% 30.22 in 10.0 mi Calm Calm - N/A   Scattered Clouds
10:54 AM 66.0 °F 54.0 °F 65% 30.21 in 10.0 mi Calm Calm - N/A   Clear
11:54 AM 71.1 °F 48.9 °F 45% 30.19 in 10.0 mi SSE 9.2 mph - N/A   Partly Cloudy
12:54 PM 71.1 °F 50.0 °F 47% 30.17 in 10.0 mi South 3.5 mph - N/A   Scattered Clouds
1:54 PM 72.0 °F 48.9 °F 44% 30.14 in 10.0 mi SE 6.9 mph - N/A   Overcast
2:54 PM 70.0 °F 50.0 °F 49% 30.13 in 10.0 mi SE 4.6 mph - N/A   Overcast
3:54 PM 71.1 °F 50.0 °F 47% 30.11 in 10.0 mi SSE 4.6 mph - N/A   Overcast
4:54 PM 72.0 °F 50.0 °F 46% 30.10 in 10.0 mi Calm Calm - N/A   Mostly Cloudy
5:54 PM 70.0 °F 51.1 °F 51% 30.09 in 10.0 mi SSW 5.8 mph - N/A   Clear
6:54 PM 66.9 °F 50.0 °F 54% 30.09 in 10.0 mi Calm Calm - N/A   Clear
7:54 PM 64.0 °F 52.0 °F 65% 30.11 in 10.0 mi Calm Calm - N/A   Overcast
8:54 PM 62.1 °F 52.0 °F 70% 30.10 in 10.0 mi Calm Calm - N/A   Partly Cloudy
9:54 PM 57.9 °F 52.0 °F 81% 30.10 in 10.0 mi Calm Calm - N/A   Partly Cloudy
10:54 PM 55.9 °F 52.0 °F 87% 30.09 in 10.0 mi Calm Calm - N/A   Clear
11:54 PM 54.0 °F 52.0 °F 93% 30.10 in 10.0 mi Calm Calm - N/A   Overcast